Regional Weather Roundup
Issued by NWS

Home | Current Version | Previous Version | Text Only | Print | Product List | Glossary Off
Versions: 1 2 3 4 5 6 7 8 9 10 11 12 13 14 15 16 17 18 19 20 21 22 23 24 25 26 27 28 29 30 31 32 33 34 35 36 37 38 39 40 41 42 43 44 45 46 47 48 49 50

000
ASUS44 KMEG 131010
RWRTN
TENNESSEE HOURLY STATE WEATHER ROUNDUP
NATIONAL WEATHER SERVICE MEMPHIS TN
500 AM CDT SUN JUL 13 2014

TNZ002-004-019-021-049-052-054-088>092-131100-
WEST TENNESSEE

CITY           SKY/WX    TMP DP  RH WIND       PRES   REMARKS
MEMPHIS INTL   PTCLDY    76  71  85 CALM      30.05R
NWS MEMPHIS      N/A     73 N/A N/A MISG        N/A
JACKSON        CLEAR     70  67  90 CALM      30.05R
DYERSBURG      CLEAR     73  63  68 CALM      30.05R
UNION CITY     CLEAR     72  70  94 CALM      30.03R
PARIS          PTCLDY    70  66  86 SW5       30.05R
LEXINGTON      MOCLDY    68  68 100 CALM      30.05R VSB 1/4
SAVANNAH       CLEAR     68  68 100 CALM      30.07R
$$

TNZ008-025-027-028-033-062-065-066-131100-
NORTH MIDDLE TENNESSEE

CITY           SKY/WX    TMP DP  RH WIND       PRES   REMARKS
NASHVILLE      PTCLDY    73  68  84 CALM      30.06R
DICKSON        CLEAR     72  66  83 SW3       30.06S
PORTLAND       MOCLDY    70  66  88 CALM      30.06R
CLARKSVILLE    PTCLDY    73  69  87 CALM      30.05R
LEBANON        CLEAR     70  65  84 CALM      30.05S
SMYRNA         CLEAR     70  70 100 CALM      30.07R
MURFREESBORO   CLEAR     74  69  84 CALM      30.06S
COOKEVILLE     CLEAR     66  66 100 CALM      30.09S
LIVINGSTON       N/A     72  66  81 SW5       30.11R
GALLATIN       CLEAR     70  69  96 CALM      30.07S
CROSSVILLE     CLEAR     68  65  90 CALM      30.15S
$$

TNZ061-075-076-078-094-096-097-131100-
SOUTH MIDDLE TENNESSEE

CITY           SKY/WX    TMP DP  RH WIND       PRES   REMARKS
LEWISBURG      CLEAR     69  66  90 CALM      30.07R
FAYETTEVILLE   CLEAR     72  70  94 CALM      30.09R
TULLAHOMA      CLEAR     72  66  83 CALM      30.11R
WINCHESTER     CLEAR     72  68  88 CALM      30.10R
MCMINNVILLE    CLEAR     66  66 100 CALM      30.10S
COLUMBIA       CLEAR     72  70  94 CALM      30.06R
SHELBYVILLE    CLEAR     70  70 100 E5        30.09S
$$

TNZ017-018-042-046-047-131100-
NORTHEAST TENNESSEE

CITY           SKY/WX    TMP DP  RH WIND       PRES   REMARKS
TRI CITIES     PTCLDY    68  65  90 CALM      30.15S
ELIZABETHTON   MOSUNNY   66  63  88 NE3       30.16S
$$

TNZ012-013-036-069-073-074-131100-
CENTRAL EAST TENNESSEE

CITY           SKY/WX    TMP DP  RH WIND       PRES   REMARKS
KNOXVILLE      PTCLDY    70  68  93 CALM      30.11R
OAK RIDGE      CLEAR     72  69  90 CALM      30.12R
GATLINBURG     MOSUNNY   68  64  88 CALM      30.11S
MORRISTOWN     SUNNY     70  70 100 CALM      30.14S
$$

TNZ083-085-099-131100-
SOUTHEAST TENNESSEE

CITY           SKY/WX    TMP DP  RH WIND       PRES   REMARKS
CHATTANOOGA    PTCLDY    73  70  90 CALM      30.10S
$$

SKY/WX REPORTED AS FAIR MEANS FEW OR NO CLOUDS BELOW
12 THOUSAND FEET.



USA.gov is the U.S. government's official web portal to all federal, state and local government web resources and services.